Location: Newark
(41.0400°S, 62.7845°W)
Time: 16:41:22
(UTC+00:00)

Vanguard 2 Rocket - Pass Details

Date: 06 December 2021
Orbit: 553 x 3325 km, 32.9° (Epoch: 23 January)

Event Time Altitude Azimuth Distance (km) Brightness Sun altitude
Rises 10:30:48 0° 284° (WNW) 7,247 10.9 19.8°
Reaches altitude 10° 10:36:03 10° 286° (WNW) 6,062 10.6 20.7°
Maximum altitude 10:53:34 61° 360° (N) 2,547 9.4 24.0°
Drops below altitude 10° 11:04:03 10° 76° (ENE) 3,808 11.5 25.9°
Sets 11:06:34 0° 80° (E) 4,496 11.6 26.4°
